Flag for U.S.A. Weather past 2 weeks in Corvallis, Oregon, U.S.A.

Now
70 °F

Sunny.


Feels Like: 70 °F
Forecast: 49 / 72 °F
Wind: 7 mph from Northeast

Location: Corvallis Municipal

Current Time: May 24, 2015 at 6:59:19 PM

Latest Report: May 24, 2015 at 6:35 PM


Visibility: 10 mi

Pressure: 30.02 "Hg

Humidity: 53%

Dew point: 52 °F

Location of CorvallisLocation

Historic Weather in Corvallis — Graph

°F

Corvallis temperature yesterday

Maximum temperature yesterday: 64 °F (at 3:15 PM)
Minimum temperature yesterday: 52 °F (at 1:35 AM)
Average temperature yesterday: 57 °F

Past Weeks' High & Low Weather Summary

 TemperatureHumidityPressure
High81 °F (May 9, 5:15 PM)94% (May 12, 1:55 AM)30.21 "Hg (May 12, 1:55 AM)
Low46 °F (May 14, 12:35 AM)28% (May 9, 5:15 PM)29.81 "Hg (May 14, 4:35 PM)
Average57 °F74%30.02 "Hg
* Reported May 9 5:15 PM — May 24 5:35 PM, Corvallis, Weather by CustomWeather, © 2015

Note: Actual official high and low records may vary slightly from our data, if they occured in-between our weather recording intervals... More about our weather records

Advertising

Corvallis weather history for previous 24 hours

 ConditionsComfort  
Time TempWeatherWind HumidityBarometerVisibility
5:35 PM
Sun, May 24
70 °FSunny.5 mph57%30.04 "Hg10 mi
5:15 PM70 °FSunny.8 mph57%30.04 "Hg10 mi
4:55 PM72 °FSunny.8 mph50%30.05 "Hg10 mi
4:35 PM72 °FSunny.6 mph50%30.06 "Hg9 mi
4:15 PM70 °FSunny.8 mph53%30.07 "Hg10 mi
3:55 PM70 °FPassing clouds.8 mph53%30.07 "Hg10 mi
3:35 PM70 °FScattered clouds.5 mph53%30.08 "Hg10 mi
3:15 PM68 °FScattered clouds.3 mph53%30.10 "Hg10 mi
2:35 PM64 °FOvercast.No wind60%30.11 "Hg10 mi
2:15 PM64 °FMostly cloudy.No wind60%30.12 "Hg10 mi
1:55 PM63 °FMostly cloudy.3 mph68%30.12 "Hg10 mi
1:35 PM63 °FOvercast.6 mph64%30.13 "Hg10 mi
1:15 PM63 °FOvercast.7 mph64%30.14 "Hg10 mi
12:55 PM61 °FMostly cloudy.No wind63%30.14 "Hg10 mi
12:35 PM61 °FOvercast.6 mph63%30.15 "Hg10 mi
12:15 PM59 °FOvercast.3 mph68%30.16 "Hg10 mi
11:55 AM59 °FOvercast.3 mph68%30.16 "Hg10 mi
11:35 AM59 °FOvercast.5 mph72%30.16 "Hg10 mi
11:15 AM57 °FOvercast.5 mph82%30.16 "Hg10 mi
10:55 AM57 °FOvercast.5 mph77%30.16 "Hg10 mi
10:35 AM55 °FOvercast.7 mph82%30.16 "Hg10 mi
10:15 AM55 °FMostly cloudy.5 mph77%30.16 "Hg10 mi
9:55 AM55 °FMostly cloudy.3 mph77%30.16 "Hg10 mi
9:35 AM54 °FMostly cloudy.3 mph82%30.17 "Hg10 mi
9:15 AM54 °FMostly cloudy.7 mph82%30.17 "Hg10 mi
8:55 AM54 °FMostly cloudy.6 mph82%30.17 "Hg10 mi
8:35 AM54 °FOvercast.6 mph82%30.17 "Hg10 mi
8:15 AM54 °FOvercast.6 mph82%30.17 "Hg10 mi
7:55 AM54 °FOvercast.6 mph82%30.17 "Hg10 mi
7:35 AM52 °FMostly cloudy.6 mph88%30.17 "Hg10 mi
7:15 AM52 °FOvercast.8 mph88%30.17 "Hg10 mi
6:55 AM52 °FMostly cloudy.6 mph88%30.17 "Hg10 mi
6:35 AM52 °FOvercast.6 mph88%30.17 "Hg10 mi
6:15 AM52 °FOvercast.7 mph82%30.17 "Hg10 mi
5:55 AM52 °FOvercast.6 mph82%30.17 "Hg10 mi
5:35 AM52 °FOvercast.6 mph82%30.17 "Hg10 mi
5:15 AM52 °FOvercast.6 mph82%30.17 "Hg10 mi
4:55 AM52 °FOvercast.6 mph82%30.17 "Hg10 mi
4:35 AM52 °FOvercast.7 mph82%30.18 "Hg10 mi
4:15 AM52 °FOvercast.8 mph82%30.18 "Hg10 mi
3:55 AM52 °FOvercast.8 mph82%30.17 "Hg10 mi
3:35 AM52 °FOvercast.8 mph82%30.17 "Hg10 mi
3:15 AM52 °FOvercast.9 mph82%30.17 "Hg10 mi
2:55 AM52 °FOvercast.12 mph82%30.18 "Hg10 mi
2:35 AM52 °FOvercast.12 mph82%30.18 "Hg10 mi
2:15 AM52 °FOvercast.13 mph82%30.19 "Hg10 mi
1:55 AM52 °FMostly cloudy.10 mph82%30.19 "Hg10 mi
1:35 AM52 °FOvercast.10 mph82%30.19 "Hg10 mi
1:15 AM54 °FOvercast.12 mph77%30.20 "Hg10 mi
12:55 AM54 °FOvercast.10 mph77%30.20 "Hg10 mi
12:35 AM54 °FOvercast.12 mph77%30.20 "Hg10 mi
12:15 AM54 °FOvercast.10 mph82%30.20 "Hg10 mi
11:55 PM
Sat, May 23
54 °FOvercast.12 mph82%30.20 "Hg10 mi
11:35 PM54 °FOvercast.9 mph82%30.20 "Hg10 mi
11:15 PM55 °FOvercast.12 mph77%30.20 "Hg10 mi
10:55 PM55 °FOvercast.10 mph77%30.20 "Hg10 mi
10:35 PM55 °FOvercast.10 mph77%30.20 "Hg10 mi
10:15 PM55 °FOvercast.9 mph77%30.20 "Hg10 mi
9:55 PM55 °FOvercast.9 mph82%30.20 "Hg10 mi
9:35 PM55 °FOvercast.8 mph82%30.19 "Hg10 mi
9:15 PM55 °FOvercast.10 mph82%30.19 "Hg10 mi
8:55 PM55 °FMore clouds than sun.10 mph82%30.18 "Hg10 mi
8:35 PM57 °FOvercast.10 mph77%30.18 "Hg10 mi
8:15 PM57 °FOvercast.10 mph77%30.18 "Hg10 mi
7:55 PM61 °FOvercast.8 mph68%30.17 "Hg10 mi
7:35 PM61 °FMostly cloudy.7 mph72%30.18 "Hg10 mi
7:15 PM63 °FMore clouds than sun.6 mph68%30.18 "Hg10 mi
6:55 PM61 °FMostly cloudy.7 mph72%30.18 "Hg10 mi
6:35 PM59 °FOvercast.6 mph77%30.18 "Hg10 mi
6:15 PM59 °FOvercast.9 mph77%30.19 "Hg10 mi
Weather by CustomWeather, © 2015

See weather overviewHow to use our weather pages